Regional Weather Roundup
Issued by NWS

Home | Current Version | Previous Version | Graphics & Text | Print | Product List | Glossary On
Versions: 1 2 3 4 5 6 7 8 9 10 11 12 13 14 15 16 17 18 19 20 21 22 23 24 25 26 27 28 29 30 31 32 33 34 35 36 37 38 39 40 41 42 43 44 45 46 47 48 49 50
000
ASUS43 KLOT 200506
RWRIL

ILLINOIS REGIONAL WEATHER ROUNDUP
NATIONAL WEATHER SERVICE CHICAGO/ROMEOVILLE IL
1200 AM CDT SAT SEP 20 2014

NOTE: "FAIR" INDICATES FEW OR NO CLOUDS BELOW 12,000 FEET WITH NO
SIGNIFICANT WEATHER AND/OR OBSTRUCTIONS TO VISIBILITY.

* THESE STATIONS ARE NOT UNDER NWS QUALITY CONTROL. THEY ALSO MAY NOT
  REPORT WEATHER SUCH AS PRECIPITATION OR FOG.

ILZ001-002-007-009-015-016-024-200600-
NORTHWEST ILLINOIS

CITY           SKY/WX    TMP DP  RH WIND       PRES   REMARKS
MOLINE         CLEAR     67  56  67 S10       29.90F
STERLING*      CLEAR     63  54  72 CALM      29.92F
SAVANNA*       CLEAR     62  55  76 SE8       29.89F
$$

ILZ003-004-008-010-011-017-018-200600-
NORTH CENTRAL ILLINOIS

CITY           SKY/WX    TMP DP  RH WIND       PRES   REMARKS
ROCKFORD       CLEAR     62  52  69 S9        29.94R
FREEPORT*      CLEAR     63  56  80 S10       29.92F
ROCHELLE*      CLEAR     63  52  67 SW10G17   29.93S
DE KALB*       CLEAR     56  49  76 S10       29.94S
PERU*          CLEAR     63  53  71 S10       29.95F
$$

ILZ005-006-012>014-019>023-200600-
NORTHEAST ILLINOIS

CITY           SKY/WX    TMP DP  RH WIND       PRES   REMARKS
CHICAGO-OHARE  PTCLDY    65  48  54 S14       29.93F
CHICAGO-MIDWAY PTCLDY    67  50  54 S16G23    29.94F
AURORA         CLEAR     61  49  64 S13       29.94F
LANSING*       CLEAR     62  50  66 S12       29.97F
JOLIET*        CLEAR     61  49  65 S5        29.97F
WAUKEGAN       CLEAR     63  48  58 S13       29.91F
DUPAGE AIRPORT CLEAR     63  49  60 S14G24    29.93F
KANKAKEE*      CLEAR     58  52  79 S9        29.99F
WHEELING       CLEAR     66  48  52 S9        29.94F
MORRIS*        CLEAR     59  52  76 S6        29.96F
ROMEOVILLE*    CLEAR     59  50  71 S10       29.96F
NORTHERLY ISL    N/A     67  47  48 S17         N/A
$$

LMZ740>746-200600-
SOUTHERN LAKE MICHIGAN

STATION/POSITION SKY/WX   TEMP    WIND        PRES    VSBY  WAVE
                          AIR SEA DIR/SP/G                  HT/PER
                          (F)     (DEG/KT/KT) (MB)    (MI)  (FT/S)
SOUTHERN BUOY              66 64  190/ 21/ 25 1013.0F         4/ 4
WAUKEGAN HARBOR            66     200/ 13/ 16   N/A
HARRISON CRIB              66     190/ 23/ 27   N/A
BURNHAM HARBOR             66     190/ 14/ 17   N/A
CALUMET HARBOR                    180/ 13/ 17 1013.2F
MICHIGAN CITY              63     160/ 12/ 17   N/A
MICHIGAN CITY 6N           64 65  190/ 14/ 17   N/A           2/ 2
ST. JOSEPH                 64 65  170/ 16/ 19   N/A           2/ 3
$$

ILZ025>027-034>036-040-047-049-050-058-095>099-200600-
WEST-CENTRAL ILLINOIS

CITY           SKY/WX    TMP DP  RH WIND       PRES   REMARKS
QUINCY         CLEAR     65  58  78 S9        29.96F
GALESBURG*     CLEAR     61  57  87 S8        29.94F
MACOMB*        CLEAR     62  57  85 S7        29.99S
JACKSONVILLE*  CLEAR     66  58  77 S8        29.99F
PITTSFIELD*    CLEAR     61  57  87 S5        30.00F
$$

ILZ028>032-037-038-041>044-048-051>054-059>061-200600-
CENTRAL ILLINOIS

CITY           SKY/WX    TMP DP  RH WIND       PRES   REMARKS
PONTIAC        CLEAR     59  54  82 S8        29.98F
DECATUR        CLEAR     59  53  80 S6        30.02F
PEORIA         CLEAR     65  54  67 S13       29.97F
LACON*         CLEAR     62  53  73 S6        29.94F
LINCOLN*       CLEAR     59  54  82 S6        29.98F
SPRINGFIELD    CLEAR     64  55  72 S7        30.00F
TAYLORVILLE    CLEAR     59  54  82 SE8       30.02S
$$

ILZ033-039-045-046-055>057-062-063-200600-
EAST-CENTRAL ILLINOIS

CITY           SKY/WX    TMP DP  RH WIND       PRES   REMARKS
CHAMPAIGN      CLEAR     58  52  80 S8        30.02F
DANVILLE*      CLEAR     55  51  86 CALM      30.00F
RANTOUL*       CLEAR     55  50  83 S6        30.02F
MATTOON        CLEAR     56  52  86 S5        30.03F
PARIS*         CLEAR     50  50  99 CALM      30.05F
$$

ILZ079-100>102-200600-
SOUTHWEST ILLINOIS

CITY           SKY/WX    TMP DP  RH WIND       PRES   REMARKS
ALTON          CLEAR     61  57  87 CALM      30.02S
BELLEVILLE     CLEAR     60  59  99 CALM      30.01F
CAHOKIA*       CLEAR     61  58  90 CALM      30.01F
SPARTA*        CLEAR     58  57  96 S3        30.04S
$$

ILZ064>066-069>071-074>076-080>082-084>086-088>090-092>094-200600-
SOUTH-CENTRAL ILLINOIS

CITY           SKY/WX    TMP DP  RH WIND       PRES   REMARKS
CARBONDALE     FOG       57  56  96 CALM      30.04S VSB 3/4
CAIRO*         CLEAR     61  58  91 CALM      30.04F
EFFINGHAM*     CLEAR     55  52  90 SE3       30.04F
MARION         CLEAR     59  57  94 CALM      30.05S FOG
MT. VERNON     CLEAR     55  50  82 CALM      30.05S VSB 1
CENTRALIA*     CLEAR     55  53  92 SE3       30.03F
SALEM*         CLEAR     62  58  88 SE3       30.03F
METROPOLIS*    CLEAR     59  59 100 CALM      30.04S FOG
$$

ILZ067-068-072-073-078-083-087-091-200600-
SOUTHEAST ILLINOIS

CITY           SKY/WX    TMP DP  RH WIND       PRES   REMARKS
LAWRENCEVILLE  CLEAR     57  55  93 CALM      30.05F
FLORA*         CLEAR     55  54  95 CALM      30.04F FOG
FAIRFIELD*     CLEAR    N/A N/A N/A CALM      30.04F
HARRISBURG*    CLEAR     58  58 100 CALM      30.05F FOG
ROBINSON*      CLEAR     55  55  97 CALM      30.06S
CARMI*         CLEAR     57  57  99 CALM      30.04F
$$

ABBREVIATIONS USED IN REMARKS
   TC - TEMPERATURE IN CELSIUS
  WCI - WIND CHILL INDEX
   HX - HEAT INDEX
  VSB - VISIBILITY
$$




USA.gov is the U.S. government's official web portal to all federal, state and local government web resources and services.